K6OUA-11 Weather Reports


time (UTC)temp
C
wind
direction
speed
KPH
gust
KPH
rain 1hr
cm
rain 24hr
cm
rain mn
cm
humidity
%
barometer
mb
20190117230153 13 238 3.2 8.0 0.00 0.00 0.20 100 1013.8
20190117225551 13 258 4.8 8.0 0.00 0.00 0.20 100 1014.0
20190117225250 13 217 4.8 8.0 0.00 0.00 0.20 100 1014.1
20190117224648 13 236 1.6 6.4 0.00 0.00 0.20 100 1013.7
20190117224046 13 252 6.4 8.0 0.00 0.00 0.20 100 1013.7
20190117223745 13 256 8.0 8.0 0.00 0.00 0.20 100 1013.6
20190117223443 13 238 3.2 8.0 0.00 0.00 0.20 100 1013.5
20190117223144 13 247 1.6 8.0 0.00 0.00 0.20 100 1013.7
20190117222841 13 265 6.4 11.3 0.00 0.00 0.20 100 1013.7
20190117222542 13 270 4.8 12.9 0.00 0.00 0.20 100 1013.7
20190117222239 13 261 4.8 12.9 0.00 0.00 0.20 100 1013.8
20190117221336 13 256 6.4 11.3 0.00 0.00 0.20 100 1013.7
20190117221035 14 249 6.4 11.3 0.00 0.00 0.20 100 1013.8
20190117220734 14 254 4.8 14.5 0.00 0.00 0.20 100 1013.8
20190117220433 14 274 11.3 12.9 0.00 0.00 0.20 100 1013.6
20190117212217 14 261 4.8 8.0 0.00 0.00 0.20 100 1013.2
20190117211917 14 261 4.8 9.7 0.00 0.00 0.20 100 1013.0
20190117211617 14 270 8.0 11.3 0.00 0.00 0.20 100 1013.2
20190117211316 14 272 8.0 8.0 0.00 0.00 0.20 100 1013.2
20190117211013 14 240 4.8 6.4 0.00 0.00 0.20 100 1013.3
20190117210713 14 262 1.6 8.0 0.00 0.00 0.20 100 1013.3
20190117210410 15 270 6.4 6.4 0.00 0.00 0.20 100 1013.2
20190117210109 15 267 3.2 3.2 0.00 0.00 0.20 100 1013.4
20190117205810 14 270 4.8 4.8 0.00 0.00 0.20 100 1013.4
20190117205508 14 270 3.2 3.2 0.00 0.00 0.20 100 1013.4
20190117205207 14 225 0.0 1.6 0.00 0.00 0.20 100 1013.4
20190117204905 14 225 0.0 3.2 0.00 0.00 0.20 100 1013.4
20190117204604 14 227 1.6 4.8 0.00 0.00 0.20 100 1013.3
20190117204303 14 225 3.2 6.4 0.00 0.00 0.20 100 1013.4
20190117204004 14 189 1.6 6.4 0.00 0.00 0.20 100 1013.5
20190117203703 14 180 1.6 3.2 0.00 0.00 0.20 100 1013.6
20190117203359 14 173 1.6 8.0 0.00 0.00 0.20 100 1013.6
20190117202759 14 173 6.4 12.9 0.00 0.00 0.20 100 1013.6
20190117202458 14 261 3.2 4.8 0.00 0.00 0.20 100 1013.7
20190117202155 14 189 3.2 6.4 0.00 0.00 0.20 100 1013.8
20190117201854 14 211 3.2 8.0 0.00 0.00 0.20 100 1013.9
20190117201553 14 245 8.0 8.0 0.00 0.00 0.20 100 1013.9
20190117201251 14 243 1.6 4.8 0.00 0.00 0.20 100 1014.0
20190117200950 14 211 3.2 8.0 0.00 0.00 0.20 100 1014.0
20190117200649 14 250 1.6 11.3 0.00 0.00 0.20 100 1014.1
20190117200348 14 225 1.6 11.3 0.00 0.00 0.20 100 1014.3
20190117200047 14 241 1.6 8.0 0.00 0.00 0.20 100 1014.3
20190117195746 14 232 6.4 8.0 0.00 0.00 0.20 100 1014.2
20190117195445 14 235 8.0 9.7 0.00 0.00 0.20 100 1014.1
20190117195144 15 258 9.7 11.3 0.00 0.00 0.20 100 1014.2
20190117194843 15 270 9.7 17.7 0.00 0.00 0.20 100 1014.4
20190117194543 15 270 14.5 17.7 0.00 0.00 0.20 100 1014.3
20190117194242 15 272 14.5 14.5 0.00 0.00 0.20 100 1014.6
20190117193939 15 270 9.7 11.3 0.00 0.00 0.20 100 1014.7
20190117193638 15 234 3.2 4.8 0.00 0.00 0.20 100 1014.6
20190117193337 15 240 4.8 4.8 0.00 0.00 0.20 100 1014.6
20190117193036 15 238 3.2 4.8 0.00 0.00 0.20 100 1014.6
20190117192735 15 222 3.2 4.8 0.00 0.00 0.20 100 1014.6
20190117192434 15 229 1.6 4.8 0.00 0.00 0.20 100 1014.5
20190117192133 15 225 4.8 6.4 0.00 0.00 0.20 100 1014.6
20190117191833 15 175 4.8 4.8 0.00 0.00 0.20 100 1014.7
20190117191531 15 225 0.0 4.8 0.00 0.00 0.20 100 1014.6
20190117191230 15 225 1.6 6.4 0.00 0.00 0.20 100 1014.6
20190117190928 15 180 3.2 6.4 0.00 0.00 0.20 100 1014.6
20190117190627 15 202 3.2 4.8 0.00 0.00 0.20 100 1014.7
20190117190326 15 180 1.6 1.6 0.00 0.00 0.20 100 1014.5
20190117190025 15 225 0.0 1.6 0.00 0.00 0.20 100 1014.5
20190117185724 15 202 3.2 3.2 0.00 0.00 0.20 100 1014.4
20190117185122 15 180 3.2 3.2 0.00 0.00 0.20 100 1014.3
20190117184520 14 225 0.0 0.0 0.00 0.00 0.20 100 1014.2
20190117184218 14 225 0.0 4.8 0.00 0.00 0.20 100 1014.2
20190117183918 14 218 1.6 4.8 0.00 0.00 0.20 100 1014.3
20190117183616 14 225 0.0 3.2 0.00 0.00 0.20 100 1014.3
20190117183315 14 225 1.6 4.8 0.00 0.00 0.20 100 1014.3
20190117183014 14 193 4.8 4.8 0.00 0.00 0.20 100 1014.3
20190117182713 14 204 1.6 3.2 0.00 0.00 0.20 100 1014.3
20190117182412 14 225 0.0 3.2 0.00 0.00 0.20 100 1014.5
20190117182111 14 225 0.0 4.8 0.00 0.00 0.20 100 1014.3
20190117181509 14 175 4.8 6.4 0.00 0.00 0.20 100 1014.3
20190117181208 14 216 3.2 9.7 0.00 0.00 0.20 100 1014.5
20190117180906 14 220 6.4 9.7 0.00 0.00 0.20 100 1014.4
20190117180605 14 184 8.0 9.7 0.00 0.00 0.20 100 1014.2
20190117180003 14 175 4.8 9.7 0.00 0.00 0.20 100 1014.2
20190117175702 14 180 0.0 3.2 0.00 0.00 0.20 100 1014.2
20190117175401 14 225 0.0 4.8 0.00 0.00 0.20 100 1014.2
20190117175100 14 236 3.2 6.4 0.00 0.00 0.20 100 1014.2
20190117174457 14 231 1.6 8.0 0.00 0.00 0.20 100 1014.1
20190117174156 14 184 1.6 9.7 0.00 0.00 0.20 100 1013.9
20190117173855 14 204 3.2 9.7 0.00 0.00 0.20 100 1013.8
20190117173554 14 236 0.0 8.0 0.00 0.00 0.20 100 1013.8
20190117173253 14 195 3.2 9.7 0.00 0.00 0.20 100 1013.8
20190117172952 14 207 8.0 8.0 0.00 0.00 0.20 100 1013.8
20190117172350 14 234 4.8 6.4 0.00 0.00 0.20 100 1013.8
20190117172049 14 216 3.2 9.7 0.00 0.00 0.20 100 1013.6
20190117171747 14 250 3.2 11.3 0.00 0.00 0.20 100 1013.7
20190117171446 14 218 6.4 12.9 0.00 0.00 0.20 100 1013.5
20190117170844 14 227 1.6 9.7 0.00 0.00 0.20 100 1013.3
20190117170543 14 191 3.2 14.5 0.00 0.00 0.20 100 1013.4
20190117170242 14 191 9.7 14.5 0.00 0.00 0.20 100 1013.4
20190117165941 14 209 1.6 16.1 0.00 0.00 0.20 100 1013.4
20190117165341 14 234 6.4 9.7 0.00 0.00 0.20 100 1013.3
20190117165039 14 199 3.2 9.7 0.00 0.00 0.18 100 1013.3
20190117164736 14 138 3.2 12.9 0.00 0.00 0.18 100 1013.1
20190117164435 14 195 9.7 11.3 0.00 0.00 0.18 100 1013.1
20190117164134 14 176 9.7 9.7 0.00 0.00 0.18 100 1013.0
20190117163532 14 218 6.4 12.9 0.00 0.00 0.18 100 1012.9
20190117163231 14 219 1.6 12.9 0.00 0.00 0.15 100 1012.7
20190117162629 14 202 6.4 11.3 0.00 0.00 0.15 100 1012.9
20190117162328 14 227 4.8 9.7 0.00 0.00 0.15 100 1012.9
20190117162026 14 195 3.2 4.8 0.00 0.00 0.13 100 1012.6
20190117161725 14 227 4.8 9.7 0.00 0.00 0.13 100 1012.6
20190117161424 14 227 6.4 22.5 0.00 0.00 0.13 100 1012.5
20190117161123 14 200 12.9 22.5 0.00 0.00 0.13 100 1012.7
20190117160824 14 252 6.4 14.5 0.00 0.00 0.10 100 1012.6
20190117160521 14 227 9.7 16.1 0.00 0.00 0.08 100 1012.8
20190117160220 14 247 16.1 16.1 0.00 0.00 0.05 100 1012.7
20190117155318 14 231 4.8 17.7 0.00 0.00 0.03 100 1012.5
20190117154714 14 198 6.4 6.4 0.00 0.00 0.03 100 1012.4
20190117154413 14 191 1.6 9.7 0.00 0.00 0.03 100 1012.3
20190117154112 14 234 1.6 12.9 0.00 0.00 0.03 100 1012.2
20190117153811 14 191 11.3 12.9 0.00 0.00 0.03 100 1011.9
20190117153510 14 189 6.4 16.1 0.00 0.00 0.03 100 1011.9
20190117153209 14 265 11.3 16.1 0.00 0.00 0.03 100 1012.0
20190117152908 14 227 16.1 16.1 0.00 0.00 0.03 100 1012.0
20190117152607 14 221 3.2 16.1 0.00 0.00 0.03 100 1011.9
20190117152307 14 265 8.0 12.9 0.00 0.00 0.00 100 1011.9
20190117152004 14 167 9.7 11.3 0.00 0.00 0.00 100 1012.0
20190117151703 14 227 9.7 16.1 0.00 0.00 0.00 100 1011.9
20190117151101 14 235 16.1 16.1 0.00 0.00 0.00 100 1012.2
20190117150800 14 186 11.3 11.3 0.00 0.00 0.58 100 1012.2
20190117150501 14 229 8.0 8.0 0.00 0.00 0.56 100 1012.3
20190117150159 14 202 4.8 11.3 0.00 0.00 0.56 100 1012.4
20190117145858 14 177 4.8 14.5 0.00 0.00 0.56 100 1012.4
20190117145556 14 151 6.4 14.5 0.00 0.00 0.56 100 1012.1
20190117145256 14 180 3.2 11.3 0.00 0.00 0.51 100 1012.2
20190117144953 14 254 4.8 9.7 0.00 0.00 0.51 100 1012.1
20190117144654 14 204 3.2 9.7 0.00 0.00 0.51 100 1012.2
20190117144351 14 213 4.8 12.9 0.00 0.00 0.48 100 1012.2
20190117144050 14 231 6.4 20.9 0.00 0.00 0.48 100 1012.1
20190117143749 14 213 8.0 20.9 0.00 0.00 0.48 100 1011.9
20190117143448 14 254 0.0 29.0 0.00 0.00 0.46 100 1012.0
20190117143147 14 218 6.4 29.0 0.00 0.00 0.46 100 1011.8
20190117142846 14 236 6.4 11.3 0.00 0.00 0.43 100 1011.8
20190117142544 14 245 4.8 17.7 0.00 0.00 0.43 100 1011.7
20190117142244 14 243 4.8 11.3 0.00 0.00 0.43 100 1011.8
20190117141942 14 274 1.6 19.3 0.00 0.00 0.43 100 1011.8
20190117141641 14 197 9.7 14.5 0.00 0.00 0.41 100 1011.6
20190117141340 14 212 1.6 24.1 0.00 0.00 0.41 100 1011.5
20190117141039 14 212 6.4 12.9 0.00 0.00 0.41 100 1011.3
20190117140740 14 236 4.8 14.5 0.00 0.00 0.41 100 1011.4
20190117140437 14 235 11.3 14.5 0.00 0.00 0.41 100 1011.1
20190117140136 14 184 14.5 19.3 0.00 0.00 0.41 100 1011.3
20190117135836 14 166 14.5 19.3 0.00 0.00 0.41 100 1011.4
20190117135533 14 198 6.4 17.7 0.00 0.00 0.41 100 1011.4
20190117135232 14 193 8.0 19.3 0.00 0.00 0.41 100 1011.3
20190117134931 14 177 19.3 19.3 0.00 0.00 0.41 100 1011.2
20190117134630 14 236 3.2 17.7 0.00 0.00 0.41 100 1011.3
20190117134329 14 231 6.4 17.7 0.00 0.00 0.41 100 1011.1
20190117134028 14 253 6.4 16.1 0.00 0.00 0.41 100 1011.2
20190117133729 14 213 4.8 19.3 0.00 0.00 0.41 100 1011.3
20190117133426 14 171 6.4 16.1 0.00 0.00 0.41 100 1011.1
20190117133126 14 157 14.5 16.1 0.00 0.00 0.41 100 1011.1
20190117132825 14 209 8.0 14.5 0.00 0.00 0.41 100 1011.1
20190117132522 14 220 4.8 14.5 0.00 0.00 0.38 100 1011.3
20190117132221 14 234 4.8 11.3 0.00 0.00 0.38 100 1011.1
20190117131922 14 177 4.8 19.3 0.00 0.00 0.38 100 1011.1
20190117131619 14 177 19.3 19.3 0.00 0.00 0.38 100 1011.1
20190117131318 14 183 1.6 16.1 0.00 0.00 0.38 100 1011.1
20190117131017 14 171 4.8 14.5 0.00 0.00 0.38 100 1011.0
20190117130716 14 202 1.6 12.9 0.00 0.00 0.38 100 1011.0
20190117130114 14 171 8.0 9.7 0.00 0.00 0.38 100 1011.2
20190117125812 14 180 4.8 9.7 0.00 0.00 0.38 100 1011.0
20190117125511 14 195 4.8 12.9 0.00 0.00 0.38 100 1011.0
20190117125211 14 155 8.0 12.9 0.00 0.00 0.38 100 1011.1
20190117124910 14 159 1.6 8.0 0.00 0.00 0.38 100 1011.2
20190117124610 14 198 4.8 8.0 0.00 0.00 0.38 100 1011.1
20190117124307 14 198 9.7 11.3 0.00 0.00 0.38 100 1011.0
20190117124007 14 180 6.4 14.5 0.00 0.00 0.38 100 1011.0
20190117123707 14 137 6.4 11.3 0.00 0.00 0.38 100 1011.1
20190117123404 14 157 4.8 8.0 0.00 0.00 0.38 100 1011.2
20190117123102 14 135 6.4 11.3 0.00 0.00 0.38 100 1011.1
20190117122500 14 130 4.8 14.5 0.00 0.00 0.38 100 1011.2
20190117122159 14 173 6.4 14.5 0.00 0.00 0.36 100 1011.3
20190117121858 14 191 9.7 14.5 0.00 0.00 0.36 100 1011.3
20190117121559 14 162 9.7 14.5 0.00 0.00 0.36 100 1011.3
20190117120354 14 159 4.8 12.9 0.00 0.00 0.28 100 1011.3
20190117120051 14 162 8.0 14.5 0.00 0.00 0.28 100 1011.5
20190117115750 14 180 6.4 14.5 0.00 0.00 0.28 100 1011.5
20190117115150 14 195 6.4 16.1 0.00 0.00 0.28 100 1011.8
20190117114849 14 164 11.3 14.5 0.00 0.00 0.28 100 1011.8
20190117114548 14 184 9.7 14.5 0.00 0.00 0.28 100 1011.8
20190117113940 14 182 8.0 11.3 0.00 0.00 0.28 100 1012.0
20190117113638 14 146 6.4 11.3 0.00 0.00 0.28 100 1012.0
20190117113336 14 180 8.0 11.3 0.00 0.00 0.28 100 1012.0
20190117113035 14 180 1.6 11.3 0.00 0.00 0.28 100 1012.0
20190117112734 14 162 8.0 11.3 0.00 0.00 0.28 100 1012.0
20190117112134 14 173 4.8 14.5 0.00 0.00 0.28 100 1012.0
20190117111832 14 189 3.2 8.0 0.00 0.00 0.28 100 1012.2
20190117111530 14 166 8.0 8.0 0.00 0.00 0.28 100 1012.2
20190117111229 14 180 8.0 9.7 0.00 0.00 0.28 100 1012.3
20190117110928 14 185 6.4 14.5 0.00 0.00 0.23 100 1012.3
20190117110628 14 180 6.4 14.5 0.00 0.00 0.23 100 1012.5
20190117110325 13 186 8.0 8.0 0.00 0.00 0.23 100 1012.3
20190117110024 13 195 9.7 12.9 0.00 0.00 0.23 100 1012.3
20190117105723 13 168 6.4 9.7 0.00 0.00 0.23 100 1012.2
20190117105422 13 147 6.4 11.3 0.00 0.00 0.23 100 1012.3
20190117105121 13 162 11.3 11.3 0.00 0.00 0.23 100 1012.1
20190117104820 13 132 4.8 9.7 0.00 0.00 0.23 100 1012.1
20190117104521 13 171 6.4 8.0 0.00 0.00 0.23 100 1012.1
20190117104220 13 144 6.4 8.0 0.00 0.00 0.23 100 1012.2
20190117103917 13 184 6.4 8.0 0.00 0.00 0.23 100 1012.1
20190117103316 13 168 6.4 11.3 0.00 0.00 0.23 100 1012.3
20190117103013 13 180 1.6 11.3 0.00 0.00 0.23 100 1012.3
20190117102712 13 182 6.4 16.1 0.00 0.00 0.23 100 1012.4
20190117102411 13 177 4.8 14.5 0.00 0.00 0.23 100 1012.4
20190117102110 13 175 6.4 12.9 0.00 0.00 0.23 100 1012.5
20190117101809 13 191 1.6 11.3 0.00 0.00 0.23 100 1012.5
20190117101508 13 144 3.2 9.7 0.00 0.00 0.23 100 1012.4
20190117101207 13 180 8.0 11.3 0.00 0.00 0.23 100 1012.5
20190117100906 13 175 6.4 8.0 0.00 0.00 0.23 100 1012.4
20190117100606 13 135 4.8 14.5 0.00 0.00 0.23 100 1012.5
20190117100304 13 175 8.0 16.1 0.00 0.00 0.23 100 1012.6
20190117100003 13 182 9.7 16.1 0.00 0.00 0.23 100 1012.7
20190117095400 13 166 9.7 11.3 0.00 0.00 0.23 100 1012.7
20190117095059 13 140 6.4 8.0 0.00 0.00 0.23 100 1012.8
20190117094758 13 153 3.2 8.0 0.00 0.00 0.23 100 1012.8
20190117094457 13 137 4.8 8.0 0.00 0.00 0.23 100 1012.9
20190117094155 13 155 4.8 9.7 0.00 0.00 0.23 100 1012.9
20190117093854 13 171 11.3 12.9 0.00 0.00 0.23 100 1012.9
20190117093252 13 189 1.6 6.4 0.00 0.00 0.23 100 1012.9
20190117092951 13 177 1.6 3.2 0.00 0.00 0.23 100 1012.9
20190117092650 13 180 4.8 4.8 0.00 0.00 0.23 100 1012.9
20190117092349 13 168 1.6 4.8 0.00 0.00 0.23 100 1013.0
20190117092048 13 180 0.0 6.4 0.00 0.00 0.23 100 1013.0
20190117091747 13 180 0.0 3.2 0.00 0.00 0.23 100 1012.9
20190117091446 13 198 0.0 4.8 0.00 0.00 0.23 100 1013.1
20190117091144 13 180 1.6 4.8 0.00 0.00 0.23 100 1013.2
20190117090843 13 173 4.8 11.3 0.00 0.00 0.23 100 1013.3
20190117090542 13 148 6.4 11.3 0.00 0.00 0.20 100 1013.2
20190117090241 13 182 4.8 11.3 0.00 0.00 0.20 100 1013.3
20190117085942 13 175 6.4 17.7 0.00 0.00 0.20 100 1013.3
20190117085639 13 171 3.2 17.7 0.00 0.00 0.20 100 1013.4
20190117085338 13 166 4.8 11.3 0.00 0.00 0.20 100 1013.4
20190117085037 13 146 1.6 9.7 0.00 0.00 0.20 100 1013.3
20190117084736 13 114 3.2 9.7 0.00 0.00 0.20 100 1013.4
20190117084434 13 126 3.2 4.8 0.00 0.00 0.20 100 1013.5
20190117084133 13 90 1.6 4.8 0.00 0.00 0.20 100 1013.5
20190117083832 13 90 1.6 3.2 0.00 0.00 0.20 100 1013.6
20190117083531 13 157 0.0 4.8 0.00 0.00 0.20 100 1013.5
20190117083230 13 171 3.2 6.4 0.00 0.00 0.20 100 1013.6
20190117082929 13 148 3.2 9.7 0.00 0.00 0.20 100 1013.5
20190117082628 13 87 9.7 9.7 0.00 0.00 0.20 100 1013.5
20190117082327 13 94 9.7 11.3 0.00 0.00 0.20 100 1013.6
20190117082026 13 101 4.8 9.7 0.00 0.00 0.20 100 1013.6
20190117081725 13 90 6.4 9.7 0.00 0.00 0.20 100 1013.6
20190117081424 13 81 8.0 9.7 0.00 0.00 0.20 100 1013.8
20190117081122 13 94 4.8 9.7 0.00 0.00 0.20 100 1013.8
20190117080821 13 90 6.4 9.7 0.00 0.00 0.20 100 1014.0
20190117080520 13 85 9.7 9.7 0.00 0.00 0.20 100 1014.1
20190117080219 13 87 3.2 4.8 0.00 0.00 0.20 100 1014.3
20190117075918 13 90 3.2 3.2 0.00 0.00 0.20 100 1014.4
20190117075617 13 108 1.6 4.8 0.00 0.00 0.20 100 1014.4
20190117075316 13 114 3.2 4.8 0.00 0.00 0.20 100 1014.6
20190117075015 13 112 3.2 4.8 0.00 0.00 0.20 100 1014.5
20190117074713 13 90 1.6 3.2 0.00 0.00 0.20 100 1014.6
20190117074412 13 83 1.6 3.2 0.00 0.00 0.20 100 1014.6
20190117074113 13 119 1.6 3.2 0.00 0.00 0.20 100 1014.7
20190117073810 13 155 1.6 4.8 0.00 0.00 0.20 100 1014.6
20190117073509 13 96 3.2 4.8 0.00 0.00 0.18 100 1014.7
20190117073210 13 137 3.2 4.8 0.00 0.00 0.18 100 1014.6
20190117072907 13 114 4.8 4.8 0.00 0.00 0.18 100 1014.6
20190117072306 13 90 3.2 4.8 0.00 0.00 0.18 100 1014.9
20190117072004 13 126 3.2 3.2 0.00 0.00 0.18 100 1015.0
20190117071703 13 112 3.2 3.2 0.00 0.00 0.18 100 1015.0
20190117071402 13 90 1.6 1.6 0.00 0.00 0.18 100 1015.1
20190117071236 13 135 1.6 1.6 0.00 0.00 0.18 100 1014.9
20190117071227 13 135 1.6 1.6 0.00 0.00 0.18 100 1015.0
20190117071220 13 225 0.0 0.0 0.00 0.00 0.18 100 1014.8
20190117071152 13 180 1.6 1.6 0.00 0.00 0.18 100 1015.0
20190117071144 13 225 0.0 4.8 0.00 0.00 0.18 100 1014.8
20190117071139 13 103 3.2 8.0 0.00 0.00 0.18 100 1014.7
20190117071132 13 105 1.6 1.6 0.00 0.00 0.18 100 1015.0
20190117071127 13 225 0.0 1.6 0.00 0.00 0.18 100 1014.9
20190117071100 13 45 1.6 3.2 0.00 0.00 0.18 100 1015.1
20190117071057 13 225 0.0 4.8 0.00 0.00 0.18 100 1014.8
20190117071053 13 225 0.0 0.0 0.00 0.00 0.18 100 1014.8
20190117071050 13 225 0.0 1.6 0.00 0.00 0.18 100 1014.9
20190117071009 13 225 0.0 4.8 0.00 0.00 0.18 100 1014.8
20190117071005 13 103 3.2 8.0 0.00 0.00 0.18 100 1014.7
20190117070944 13 105 1.6 1.6 0.00 0.00 0.18 100 1015.0
20190117070924 13 225 0.0 0.0 0.00 0.00 0.18 100 1014.8
20190117070920 13 225 0.0 1.6 0.00 0.00 0.18 100 1014.9
20190117070916 13 225 0.0 1.6 0.00 0.00 0.18 100 1014.8
20190117070902 13 105 1.6 1.6 0.00 0.00 0.18 100 1015.0
20190117070844 13 225 0.0 1.6 0.00 0.00 0.18 100 1014.8
20190117070841 13 225 0.0 4.8 0.00 0.00 0.18 100 1014.8
20190117070837 13 85 6.4 6.4 0.00 0.00 0.18 100 1014.7
20190117070834 13 135 1.6 1.6 0.00 0.00 0.18 100 1014.9
20190117070830 13 225 0.0 0.0 0.00 0.00 0.18 100 1014.8
20190117070827 13 225 0.0 1.6 0.00 0.00 0.18 100 1014.9
20190117070817 13 105 1.6 1.6 0.00 0.00 0.18 100 1015.0
20190117070806 13 180 1.6 1.6 0.00 0.00 0.18 100 1015.0
20190117070800 13 135 1.6 1.6 0.00 0.00 0.18 100 1014.9
20190117070754 13 225 0.0 1.6 0.00 0.00 0.18 100 1014.9
20190117070749 13 135 1.6 1.6 0.00 0.00 0.18 100 1015.0
20190117070746 13 225 0.0 0.0 0.00 0.00 0.18 100 1014.8
20190117070737 13 105 1.6 1.6 0.00 0.00 0.18 100 1015.0
20190117070729 13 180 1.6 1.6 0.00 0.00 0.18 100 1015.0
20190117070723 13 135 1.6 1.6 0.00 0.00 0.18 100 1014.9
20190117070715 13 225 0.0 4.8 0.00 0.00 0.18 100 1014.8
20190117070707 13 135 1.6 1.6 0.00 0.00 0.18 100 1015.0
20190117070705 13 225 0.0 0.0 0.00 0.00 0.18 100 1014.8
20190117070656 13 105 1.6 1.6 0.00 0.00 0.18 100 1015.0
20190117070649 13 180 1.6 1.6 0.00 0.00 0.18 100 1015.0
20190117070642 13 135 1.6 1.6 0.00 0.00 0.18 100 1014.9
20190117070637 13 225 0.0 1.6 0.00 0.00 0.18 100 1014.9
20190117070635 13 103 3.2 8.0 0.00 0.00 0.18 100 1014.7
20190117070633 13 85 6.4 6.4 0.00 0.00 0.18 100 1014.7
20190117070629 13 135 1.6 1.6 0.00 0.00 0.18 100 1015.0
20190117070627 13 225 0.0 0.0 0.00 0.00 0.18 100 1014.8
20190117070613 13 105 1.6 1.6 0.00 0.00 0.18 100 1015.0
20190117070609 13 180 1.6 1.6 0.00 0.00 0.18 100 1015.0
20190117070603 13 135 1.6 1.6 0.00 0.00 0.18 100 1014.9
20190117070558 13 225 0.0 1.6 0.00 0.00 0.18 100 1014.9
20190117070556 13 103 3.2 8.0 0.00 0.00 0.18 100 1014.7
20190117070553 13 135 1.6 1.6 0.00 0.00 0.18 100 1015.0
20190117070548 13 225 0.0 0.0 0.00 0.00 0.18 100 1014.8
20190117070543 13 90 4.8 4.8 0.00 0.00 0.18 100 1014.9
20190117070540 13 105 1.6 1.6 0.00 0.00 0.18 100 1015.0
20190117070533 13 180 1.6 1.6 0.00 0.00 0.18 100 1015.0
20190117070526 13 135 1.6 1.6 0.00 0.00 0.18 100 1014.9
20190117070523 13 225 0.0 1.6 0.00 0.00 0.18 100 1014.9
20190117070520 13 225 0.0 1.6 0.00 0.00 0.18 100 1014.8
20190117070515 13 135 1.6 1.6 0.00 0.00 0.18 100 1015.0
20190117070512 13 225 0.0 0.0 0.00 0.00 0.18 100 1014.8
20190117070506 13 105 1.6 1.6 0.00 0.00 0.18 100 1015.0
20190117070500 13 90 4.8 4.8 0.00 0.00 0.18 100 1014.9
20190117070455 13 180 1.6 1.6 0.00 0.00 0.18 100 1015.0
20190117070450 13 135 1.6 1.6 0.00 0.00 0.18 100 1014.9
20190117070447 13 225 0.0 1.6 0.00 0.00 0.18 100 1014.9
20190117070445 13 103 3.2 8.0 0.00 0.00 0.18 100 1014.7
20190117070439 13 85 6.4 6.4 0.00 0.00 0.18 100 1014.7
20190117070435 13 135 1.6 1.6 0.00 0.00 0.18 100 1015.0
20190117070430 13 105 1.6 1.6 0.00 0.00 0.18 100 1015.0
20190117070424 13 90 4.8 4.8 0.00 0.00 0.18 100 1014.9
20190117070417 13 135 1.6 1.6 0.00 0.00 0.18 100 1014.9
20190117070415 13 225 0.0 1.6 0.00 0.00 0.18 100 1014.9
20190117070407 13 85 6.4 6.4 0.00 0.00 0.18 100 1014.7
20190117070402 13 225 0.0 0.0 0.00 0.00 0.18 100 1014.8
20190117070350 13 90 4.8 4.8 0.00 0.00 0.18 100 1014.9
20190117070343 13 135 1.6 1.6 0.00 0.00 0.18 100 1014.9
20190117070341 13 225 0.0 4.8 0.00 0.00 0.18 100 1014.8
20190117070334 13 85 6.4 6.4 0.00 0.00 0.18 100 1014.7
20190117070332 13 135 1.6 1.6 0.00 0.00 0.18 100 1015.0
20190117070323 13 105 1.6 1.6 0.00 0.00 0.18 100 1015.0
20190117070317 13 90 4.8 4.8 0.00 0.00 0.18 100 1014.9
20190117070310 13 135 1.6 1.6 0.00 0.00 0.18 100 1014.9
20190117070308 13 225 0.0 1.6 0.00 0.00 0.18 100 1014.8
20190117070306 13 103 3.2 8.0 0.00 0.00 0.18 100 1014.7
20190117070301 13 85 6.4 6.4 0.00 0.00 0.18 100 1014.7
20190117070257 13 225 0.0 0.0 0.00 0.00 0.18 100 1014.8
20190117070249 13 105 1.6 1.6 0.00 0.00 0.18 100 1015.0
20190117070242 13 90 4.8 4.8 0.00 0.00 0.18 100 1014.9
20190117070236 13 92 3.2 4.8 0.00 0.00 0.18 100 1014.9
20190117070233 13 225 0.0 1.6 0.00 0.00 0.18 100 1014.9
20190117070217 13 105 1.6 1.6 0.00 0.00 0.18 100 1015.0
20190117070207 13 90 4.8 4.8 0.00 0.00 0.18 100 1014.9
20190117070202 13 92 3.2 4.8 0.00 0.00 0.18 100 1014.9
20190117070159 13 103 3.2 8.0 0.00 0.00 0.18 100 1014.7
20190117070157 13 90 1.6 3.2 0.00 0.00 0.18 100 1015.1
20190117070155 13 225 0.0 0.0 0.00 0.00 0.18 100 1014.8
20190117070133 13 90 4.8 4.8 0.00 0.00 0.18 100 1014.9
20190117070129 13 92 3.2 4.8 0.00 0.00 0.18 100 1014.9
20190117070127 13 135 1.6 1.6 0.00 0.00 0.18 100 1014.9
20190117070125 13 103 3.2 8.0 0.00 0.00 0.18 100 1014.7
20190117070123 13 135 1.6 1.6 0.00 0.00 0.18 100 1015.0
20190117070111 13 105 1.6 1.6 0.00 0.00 0.18 100 1015.0
20190117070100 13 90 4.8 4.8 0.00 0.00 0.18 100 1014.9
20190117070056 13 135 1.6 1.6 0.00 0.00 0.18 100 1014.9
20190117070054 13 180 1.6 1.6 0.00 0.00 0.18 100 1015.0
20190117070051 13 225 0.0 0.0 0.00 0.00 0.18 100 1014.8
20190117070049 13 135 1.6 1.6 0.00 0.00 0.18 100 1015.0
20190117070037 13 105 1.6 1.6 0.00 0.00 0.18 100 1015.0
20190117070028 13 90 4.8 4.8 0.00 0.00 0.18 100 1014.9
20190117070024 13 135 1.6 1.6 0.00 0.00 0.18 100 1014.9
20190117070022 13 225 0.0 1.6 0.00 0.00 0.18 100 1014.9
20190117070019 13 225 0.0 0.0 0.00 0.00 0.18 100 1014.8
20190117070015 13 135 1.6 1.6 0.00 0.00 0.18 100 1015.0
20190117070004 13 105 1.6 1.6 0.00 0.00 0.18 100 1015.0
20190117065954 13 90 4.8 4.8 0.00 0.00 0.18 100 1014.9
20190117065950 13 92 3.2 4.8 0.00 0.00 0.18 100 1014.9
20190117065948 13 180 1.6 1.6 0.00 0.00 0.18 100 1015.0
20190117065942 13 135 1.6 1.6 0.00 0.00 0.18 100 1015.0
20190117065932 13 105 1.6 1.6 0.00 0.00 0.18 100 1015.0
20190117065921 13 90 4.8 4.8 0.00 0.00 0.18 100 1014.9
20190117065919 13 92 3.2 4.8 0.00 0.00 0.18 100 1014.9
20190117065917 13 225 0.0 4.8 0.00 0.00 0.18 100 1014.8
20190117065911 13 135 1.6 1.6 0.00 0.00 0.18 100 1015.0
20190117065848 13 135 1.6 1.6 0.00 0.00 0.18 100 1014.9
20190117065846 13 225 0.0 1.6 0.00 0.00 0.18 100 1014.9
20190117065840 13 135 1.6 1.6 0.00 0.00 0.18 100 1015.0
20190117065829 13 105 1.6 1.6 0.00 0.00 0.18 100 1015.0
20190117065816 13 85 6.4 6.4 0.00 0.00 0.18 100 1014.7
20190117065814 13 225 0.0 1.6 0.00 0.00 0.18 100 1014.9
20190117065806 13 135 1.6 1.6 0.00 0.00 0.18 100 1015.0
20190117065756 13 105 1.6 1.6 0.00 0.00 0.18 100 1015.0
20190117065745 13 225 0.0 4.8 0.00 0.00 0.18 100 1014.8
20190117065736 13 135 1.6 1.6 0.00 0.00 0.18 100 1015.0
20190117065713 13 180 1.6 1.6 0.00 0.00 0.18 100 1015.0
20190117065654 13 105 1.6 1.6 0.00 0.00 0.18 100 1015.0
20190117065644 13 103 3.2 8.0 0.00 0.00 0.18 100 1014.7
20190117065642 13 85 6.4 6.4 0.00 0.00 0.18 100 1014.7
20190117065613 13 103 3.2 8.0 0.00 0.00 0.18 100 1014.7
20190117065611 13 85 6.4 6.4 0.00 0.00 0.18 100 1014.7
20190117065602 13 135 1.6 1.6 0.00 0.00 0.18 100 1015.0
20190117065555 13 105 1.6 1.6 0.00 0.00 0.18 100 1015.0
20190117065542 13 103 3.2 8.0 0.00 0.00 0.18 100 1014.7
20190117065540 13 225 0.0 1.6 0.00 0.00 0.18 100 1014.9
20190117065530 13 135 1.6 1.6 0.00 0.00 0.18 100 1015.0
20190117065510 13 225 0.0 0.0 0.00 0.00 0.18 100 1014.8
20190117065508 13 171 1.6 3.2 0.00 0.00 0.18 100 1014.8
20190117065459 13 135 1.6 1.6 0.00 0.00 0.18 100 1015.0
20190117065441 13 103 3.2 8.0 0.00 0.00 0.18 100 1014.7
20190117065438 13 135 1.6 1.6 0.00 0.00 0.18 100 1014.9
20190117065426 13 135 1.6 1.6 0.00 0.00 0.18 100 1015.0
20190117065409 13 225 0.0 0.0 0.00 0.00 0.18 100 1014.8
20190117065406 13 135 1.6 1.6 0.00 0.00 0.18 100 1014.9
20190117065354 13 135 1.6 1.6 0.00 0.00 0.18 100 1015.0
20190117065336 13 225 0.0 1.6 0.00 0.00 0.18 100 1014.8
20190117065322 13 135 1.6 1.6 0.00 0.00 0.18 100 1015.0
20190117065303 13 225 0.0 0.0 0.00 0.00 0.18 100 1014.8
20190117065301 13 171 1.6 3.2 0.00 0.00 0.18 100 1014.8
20190117065254 13 135 1.6 1.6 0.00 0.00 0.18 100 1014.9
20190117065248 13 135 1.6 1.6 0.00 0.00 0.18 100 1015.0
20190117065230 13 225 0.0 4.8 0.00 0.00 0.18 100 1014.8
20190117065214 13 135 1.6 1.6 0.00 0.00 0.18 100 1015.0
20190117065127 13 225 0.0 0.0 0.00 0.00 0.18 100 1014.8
20190117065125 13 92 3.2 4.8 0.00 0.00 0.18 100 1014.9
20190117065107 13 135 1.6 1.6 0.00 0.00 0.18 100 1015.0
20190117065054 13 90 4.8 4.8 0.00 0.00 0.18 100 1014.9
20190117065019 13 225 0.0 0.0 0.00 0.00 0.18 100 1014.8
20190117064953 13 135 1.6 1.6 0.00 0.00 0.18 100 1015.0
20190117064939 13 180 1.6 1.6 0.00 0.00 0.18 100 1015.0
20190117064908 13 225 0.0 4.8 0.00 0.00 0.18 100 1014.8
20190117064906 13 171 1.6 3.2 0.00 0.00 0.18 100 1014.8
20190117064834 13 225 0.0 0.0 0.00 0.00 0.18 100 1014.8
20190117064801 13 225 0.0 1.6 0.00 0.00 0.18 100 1014.9
20190117064759 13 171 1.6 3.2 0.00 0.00 0.18 100 1014.8
20190117064727 13 90 4.8 4.8 0.00 0.00 0.18 100 1014.9
20190117064652 13 225 0.0 0.0 0.00 0.00 0.18 100 1014.8
20190117064615 13 225 0.0 1.6 0.00 0.00 0.18 100 1014.9
20190117064539 13 225 0.0 0.0 0.00 0.00 0.18 100 1014.8
20190117064459 13 180 1.6 1.6 0.00 0.00 0.18 100 1015.0
20190117064418 13 85 6.4 6.4 0.00 0.00 0.18 100 1014.7
20190117064416 13 171 1.6 3.2 0.00 0.00 0.18 100 1014.8
20190117064332 13 225 0.0 0.0 0.00 0.00 0.18 100 1014.8
20190117064330 13 92 3.2 4.8 0.00 0.00 0.18 100 1014.9
20190117064242 13 225 0.0 0.0 0.00 0.00 0.18 100 1014.8
20190117064240 13 171 1.6 3.2 0.00 0.00 0.18 100 1014.8
20190117064151 13 225 0.0 1.6 0.00 0.00 0.18 100 1014.9
20190117064102 13 225 0.0 1.6 0.00 0.00 0.18 100 1014.9
20190117064100 13 171 1.6 3.2 0.00 0.00 0.18 100 1014.8
20190117064049 13 180 0.0 1.6 0.00 0.00 0.18 100 1014.9
20190117064009 13 225 0.0 1.6 0.00 0.00 0.18 100 1014.9
20190117064007 13 171 1.6 3.2 0.00 0.00 0.18 100 1014.8
20190117063909 13 225 0.0 1.6 0.00 0.00 0.18 100 1014.8
20190117063810 13 225 0.0 0.0 0.00 0.00 0.18 100 1014.8
20190117063748 13 180 1.6 1.6 0.00 0.00 0.18 100 1014.9
20190117063738 13 90 4.8 4.8 0.00 0.00 0.18 100 1014.9
20190117063707 13 103 3.2 8.0 0.00 0.00 0.18 100 1014.7
20190117063705 13 92 3.2 4.8 0.00 0.00 0.18 100 1014.9
20190117063634 13 225 0.0 1.6 0.00 0.00 0.18 100 1014.9
20190117063602 13 225 0.0 0.0 0.00 0.00 0.18 100 1014.8
20190117063600 13 92 3.2 4.8 0.00 0.00 0.18 100 1014.9
20190117063527 13 225 0.0 1.6 0.00 0.00 0.18 100 1014.9
20190117063451 13 225 0.0 1.6 0.00 0.00 0.18 100 1014.9
20190117063449 13 171 1.6 3.2 0.00 0.00 0.18 100 1014.8
20190117063414 13 85 6.4 6.4 0.00 0.00 0.18 100 1014.7
20190117063337 13 225 0.0 0.0 0.00 0.00 0.18 100 1014.8
20190117063335 13 171 1.6 3.2 0.00 0.00 0.18 100 1014.8
20190117063257 13 180 1.6 1.6 0.00 0.00 0.18 100 1015.0
20190117063255 13 171 1.6 3.2 0.00 0.00 0.18 100 1014.8
20190117063217 13 180 1.6 1.6 0.00 0.00 0.18 100 1015.0
20190117063215 13 171 1.6 3.2 0.00 0.00 0.18 100 1014.8
20190117063146 13 225 0.0 0.0 0.00 0.00 0.18 100 1014.8
20190117063133 13 85 6.4 6.4 0.00 0.00 0.18 100 1014.7
20190117063049 13 225 0.0 4.8 0.00 0.00 0.18 100 1014.8
20190117063007 13 225 0.0 1.6 0.00 0.00 0.18 100 1014.9
20190117063004 13 171 1.6 3.2 0.00 0.00 0.18 100 1014.8
20190117062919 13 103 3.2 8.0 0.00 0.00 0.18 100 1014.7
20190117062845 13 225 0.0 0.0 0.00 0.00 0.18 100 1014.9
20190117062833 13 103 3.2 8.0 0.00 0.00 0.18 100 1014.7
20190117062745 13 85 6.4 6.4 0.00 0.00 0.18 100 1014.7
20190117062653 13 85 6.4 6.4 0.00 0.00 0.18 100 1014.7
20190117062603 13 225 0.0 1.6 0.00 0.00 0.18 100 1014.8
20190117062601 13 171 1.6 3.2 0.00 0.00 0.18 100 1014.8
20190117062544 13 225 0.0 1.6 0.00 0.00 0.18 100 1014.9
20190117062509 13 103 3.2 8.0 0.00 0.00 0.18 100 1014.7
20190117062414 13 103 3.2 8.0 0.00 0.00 0.18 100 1014.7
20190117062412 13 171 1.6 3.2 0.00 0.00 0.18 100 1014.8
20190117062316 13 103 3.2 8.0 0.00 0.00 0.18 100 1014.7
20190117062243 13 180 1.6 1.6 0.00 0.00 0.18 100 1015.0
20190117062217 13 225 0.0 1.6 0.00 0.00 0.18 100 1014.8
20190117062112 13 90 4.8 4.8 0.00 0.00 0.18 100 1014.9
20190117062006 13 85 6.4 6.4 0.00 0.00 0.18 100 1014.7
20190117061942 13 225 0.0 1.6 0.00 0.00 0.18 100 1014.8
20190117061900 13 85 6.4 6.4 0.00 0.00 0.18 100 1014.7
20190117061753 13 90 4.8 4.8 0.00 0.00 0.18 100 1014.9
20190117061642 13 103 3.2 8.0 0.00 0.00 0.18 100 1014.7
20190117061528 13 103 3.2 8.0 0.00 0.00 0.18 100 1014.7
20190117061412 13 90 4.8 4.8 0.00 0.00 0.18 100 1014.9
20190117061339 13 103 3.2 8.0 0.00 0.00 0.18 100 1014.7
20190117061251 13 85 6.4 6.4 0.00 0.00 0.18 100 1014.7
20190117061129 13 85 6.4 6.4 0.00 0.00 0.18 100 1014.7
20190117061038 13 85 6.4 6.4 0.00 0.00 0.18 100 1014.7
20190117061000 13 90 4.8 4.8 0.00 0.00 0.18 100 1014.9
20190117060959 13 171 1.6 3.2 0.00 0.00 0.18 100 1014.8
20190117060829 13 92 3.2 4.8 0.00 0.00 0.18 100 1014.9
20190117060737 13 90 4.8 4.8 0.00 0.00 0.18 100 1014.9
20190117060653 13 92 3.2 4.8 0.00 0.00 0.18 100 1014.9
20190117060514 13 171 1.6 3.2 0.00 0.00 0.18 100 1014.8
20190117060436 13 92 3.2 4.8 0.00 0.00 0.18 100 1014.9
20190117060332 13 171 1.6 3.2 0.00 0.00 0.18 100 1014.8
20190117060147 13 171 1.6 3.2 0.00 0.00 0.18 100 1014.8
20190117055958 13 171 1.6 3.2 0.00 0.00 0.18 100 1014.8
20190117055834 13 130 4.8 4.8 0.00 0.00 0.18 100 1014.8
20190117055807 13 171 1.6 3.2 0.00 0.00 0.18 100 1014.8
20190117055533 13 171 1.6 3.2 0.00 0.00 0.18 100 1014.8
20190117055231 13 135 1.6 4.8 0.00 0.00 0.18 100 1014.6
20190117054931 13 164 1.6 4.8 0.00 0.00 0.18 100 1014.6
20190117054629 13 103 4.8 4.8 0.00 0.00 0.18 100 1014.6
20190117054330 13 128 3.2 4.8 0.00 0.00 0.18 100 1014.4
20190117054027 13 96 3.2 3.2 0.00 0.00 0.18 100 1014.5
20190117053728 13 157 1.6 3.2 0.00 0.00 0.18 100 1014.5
20190117053425 13 112 1.6 3.2 0.00 0.00 0.18 100 1014.4
20190117052823 13 135 1.6 3.2 0.00 0.00 0.18 100 1014.5
20190117052806 13 121 1.6 4.8 0.00 0.00 0.18 100 1014.4
20190117052521 13 121 1.6 4.8 0.00 0.00 0.18 100 1014.4
20190117052220 13 99 3.2 8.0 0.00 0.00 0.18 100 1014.3
20190117051923 13 83 3.2 4.8 0.00 0.00 0.18 100 1014.3
20190117051618 13 103 3.2 3.2 0.00 0.00 0.18 100 1014.3
20190117051320 13 180 0.0 0.0 0.00 0.00 0.18 100 1014.2
20190117051016 13 209 0.0 1.6 0.00 0.00 0.18 100 1014.2
20190117050715 13 135 1.6 3.2 0.00 0.00 0.18 100 1014.2
20190117050504 13 135 1.6 3.2 0.00 0.00 0.18 100 1014.2
20190117050414 13 135 1.6 3.2 0.00 0.00 0.18 100 1014.2
20190117050113 13 121 1.6 1.6 0.00 0.00 0.18 100 1014.3
20190117045511 13 135 1.6 6.4 0.00 0.00 0.18 100 1014.2
20190117045211 13 81 4.8 8.0 0.00 0.00 0.18 100 1014.1
20190117044910 13 76 4.8 6.4 0.00 0.00 0.18 100 1014.0
20190117044306 13 90 3.2 9.7 0.00 0.00 0.18 100 1014.0
20190117043706 13 87 4.8 6.4 0.00 0.00 0.18 100 1013.9
20190117043403 13 81 3.2 4.8 0.00 0.00 0.18 100 1014.1
20190117043104 13 45 1.6 6.4 0.00 0.00 0.18 100 1014.1
20190117042802 13 85 3.2 6.4 0.00 0.00 0.18 100 1014.2
20190117042459 13 76 1.6 4.8 0.00 0.00 0.18 100 1014.1
20190117042158 13 90 3.2 4.8 0.00 0.00 0.18 100 1014.0
20190117041857 13 135 1.6 3.2 0.00 0.00 0.18 100 1014.2
20190117041556 13 202 0.0 3.2 0.00 0.00 0.18 100 1014.3
20190117041255 13 195 0.0 3.2 0.00 0.00 0.18 100 1014.2
20190117040653 13 102 3.2 8.0 0.00 0.00 0.18 100 1014.1
20190117040352 13 78 6.4 8.0 0.00 0.00 0.18 100 1014.0
20190117040051 13 81 4.8 4.8 0.00 0.00 0.18 100 1014.1
20190117035749 13 31 4.8 4.8 0.00 0.00 0.18 100 1014.1
20190117035448 13 45 3.2 4.8 0.00 0.00 0.18 100 1014.2
20190117035150 13 45 3.2 4.8 0.00 0.00 0.18 100 1014.1
20190117034848 13 45 0.0 1.6 0.00 0.00 0.18 100 1014.3
20190117034547 13 45 0.0 1.6 0.00 0.00 0.18 99 1014.2
20190117034244 13 45 1.6 3.2 0.00 0.00 0.18 100 1014.2
20190117033943 13 180 0.0 3.2 0.00 0.00 0.18 99 1014.3
20190117033642 13 45 1.6 4.8 0.00 0.00 0.18 100 1014.1
20190117033341 13 63 4.8 6.4 0.00 0.00 0.18 100 1014.1
20190117033039 13 67 3.2 6.4 0.00 0.00 0.18 100 1014.1
20190117032738 13 108 3.2 9.7 0.00 0.00 0.18 100 1014.1
20190117032437 13 108 6.4 6.4 0.00 0.00 0.18 100 1014.0
20190117032136 13 83 4.8 6.4 0.00 0.00 0.18 99 1013.9
20190117031837 13 72 4.8 4.8 0.00 0.00 0.18 100 1014.0
20190117031534 13 171 1.6 3.2 0.00 0.00 0.18 99 1014.2
20190117031235 13 180 1.6 1.6 0.00 0.00 0.18 99 1014.3
20190117030934 13 180 0.0 1.6 0.00 0.00 0.18 99 1014.0
20190117030633 13 180 0.0 1.6 0.00 0.00 0.18 99 1013.9
20190117030331 13 285 1.6 3.2 0.00 0.00 0.18 99 1014.1
20190117030029 13 315 3.2 6.4 0.00 0.00 0.18 99 1014.1
20190117025727 13 267 6.4 6.4 0.00 0.00 0.18 100 1014.0
20190117025426 13 270 4.8 6.4 0.00 0.00 0.18 99 1013.9
20190117024826 13 238 1.6 1.6 0.00 0.00 0.18 99 1013.8
20190117024523 13 225 0.0 1.6 0.00 0.00 0.18 99 1013.8
20190117024222 13 180 1.6 3.2 0.00 0.00 0.18 99 1013.9
20190117023921 13 130 3.2 3.2 0.00 0.00 0.18 99 1013.8
20190117023621 13 148 1.6 3.2 0.00 0.00 0.15 99 1013.8
20190117023019 13 180 1.6 3.2 0.00 0.00 0.13 99 1013.7
20190117022716 13 135 0.0 3.2 0.00 0.00 0.10 99 1013.8
20190117022415 13 123 1.6 3.2 0.00 0.00 0.10 100 1013.6
20190117022114 13 90 1.6 3.2 0.00 0.00 0.10 99 1013.7
20190117021813 13 76 0.0 0.0 0.00 0.00 0.10 99 1013.6
20190117021512 13 90 0.0 1.6 0.00 0.00 0.10 99 1013.5
20190117021211 13 90 0.0 1.6 0.00 0.00 0.10 99 1013.6
20190117020911 13 90 1.6 1.6 0.00 0.00 0.10 99 1013.6
20190117020309 13 90 1.6 4.8 0.00 0.00 0.05 99 1013.5
20190117015759 13 69 6.4 8.0 0.00 0.00 0.05 99 1013.3
20190117015705 13 69 6.4 8.0 0.00 0.00 0.05 99 1013.3
20190117015404 13 74 6.4 8.0 0.00 0.00 0.05 99 1013.2
20190117015103 13 87 6.4 8.0 0.00 0.00 0.05 99 1013.2
20190117014802 13 69 6.4 8.0 0.00 0.00 0.05 99 1013.4
20190117014200 13 74 6.4 9.7 0.00 0.00 0.05 98 1013.2
20190117013858 13 90 6.4 8.0 0.00 0.00 0.05 98 1013.3
20190117013256 13 225 0.0 0.0 0.00 0.00 0.05 99 1013.3
20190117012957 13 225 0.0 1.6 0.00 0.00 0.05 98 1013.4
20190117012654 13 225 0.0 1.6 0.00 0.00 0.05 98 1013.4
20190117012053 13 90 0.0 3.2 0.00 0.00 0.05 98 1013.6
20190117011450 13 90 1.6 4.8 0.00 0.00 0.05 98 1013.6
20190117011149 13 90 3.2 4.8 0.00 0.00 0.05 98 1013.5
20190117010848 13 90 1.6 4.8 0.00 0.00 0.05 98 1013.5
20190117010546 13 90 3.2 4.8 0.00 0.00 0.05 98 1013.4
20190117005946 13 78 3.2 3.2 0.00 0.00 0.05 98 1013.5
20190117005645 13 87 3.2 4.8 0.00 0.00 0.05 98 1013.6
20190117005342 14 94 3.2 4.8 0.00 0.00 0.05 98 1013.6
20190117005041 14 38 1.6 4.8 0.00 0.00 0.05 98 1013.7
20190117004740 14 67 1.6 4.8 0.00 0.00 0.05 97 1013.6
20190117004439 14 117 1.6 4.8 0.00 0.00 0.05 98 1013.6
20190117004138 14 67 3.2 4.8 0.00 0.00 0.05 98 1013.6
20190117003535 14 65 3.2 6.4 0.00 0.00 0.05 98 1013.5
20190117003234 14 75 1.6 4.8 0.00 0.00 0.05 98 1013.5
20190117002933 14 72 4.8 6.4 0.00 0.00 0.05 97 1013.5
20190117002632 14 83 4.8 8.0 0.00 0.00 0.05 97 1013.5
20190117002030 14 45 1.6 3.2 0.00 0.00 0.05 97 1013.5
20190117001729 14 90 1.6 1.6 0.00 0.00 0.05 98 1013.7
20190117001429 14 180 0.0 0.0 0.00 0.00 0.05 98 1013.7
20190117001127 14 180 0.0 1.6 0.00 0.00 0.05 97 1013.7
20190117000524 14 117 3.2 4.8 0.00 0.00 0.05 97 1013.7
20190117000223 14 101 4.8 6.4 0.00 0.00 0.05 97 1013.6
20190116235922 14 94 4.8 6.4 0.00 0.00 0.05 98 1013.7
20190116235621 14 92 4.8 8.0 0.00 0.00 0.05 97 1013.7
20190116235322 14 94 4.8 4.8 0.00 0.00 0.05 97 1013.6
20190116235115 14 128 1.6 4.8 0.00 0.00 0.05 98 1013.8
20190116235019 14 128 1.6 4.8 0.00 0.00 0.05 98 1013.8
20190116234719 14 92 3.2 8.0 0.00 0.00 0.05 97 1013.8
20190116234417 14 135 3.2 8.0 0.00 0.00 0.05 98 1013.8
20190116234116 14 96 6.4 11.3 0.00 0.00 0.05 98 1013.8
20190116233814 14 101 6.4 9.7 0.00 0.00 0.05 97 1013.8
20190116233515 14 90 6.4 11.3 0.00 0.00 0.05 98 1013.7
20190116233212 14 108 6.4 11.3 0.00 0.00 0.05 97 1013.9
20190116232911 14 94 4.8 9.7 0.00 0.00 0.05 97 1013.7
20190116232309 14 94 4.8 12.9 0.00 0.00 0.05 97 1013.9
20190116231707 14 90 9.7 12.9 0.00 0.00 0.05 97 1013.6
20190116231406 14 103 8.0 12.9 0.00 0.00 0.05 97 1013.8
20190116230502 14 103 4.8 11.3 0.00 0.00 0.05 96 1013.7